Voltar ao catálogo

STARLINK-5531

AtivoComunicaçõesVLEO
NORAD 55383·PAYLOAD·🇺🇸 United States

Lançado Jan 26, 2023 de Cape Canaveral Space Force Station

Loading…

Próximas Passagens (próximas 24 horas)

TLE

AtualizadoSource: CelesTrak SupGP

Época: Sep 14, 2026, 21:32 UTC

1 55383C 23013BE  26257.89770833 -.00017675  00000+0 -64015-3 0  2573
2 55383  43.0022 300.1789 0002288 272.2353 311.6990 15.27587675    12

Acompanhe STARLINK-5531 em tempo real com AllMySat

Download on the App Store